Location: Le Plessis-Placy
(49.0579°N, 2.9892°E)
Time: 00:06:34
(UTC+00:00)

Daily predictions for brighter satellites

Satellite Brightness Start Highest point End
(mag) Time Altitude Azimuth Time Altitude Azimuth Time Altitude Azimuth
Cosmos 2263 Rocket 4.5 03:18:49 19° NE 03:18:49 19° NE 03:22:28 10° E
ATLAS 3B R/B 3.9 03:36:59 32° NNE 03:37:11 33° NNE 03:43:12 10° E
NOSS 3-2 (A) 4.1 03:52:25 71° NNE 03:52:38 71° NE 04:00:55 10° SE
USA 215 3.4 03:51:06 10° ESE 03:57:09 65° NE 03:57:09 65° NE
CENTAUR R/B 3.6 03:57:40 43° N 03:59:50 53° NE 04:08:13 10° ESE
Cosmos 1980 Rocket 3.5 04:05:29 29° SE 04:07:21 37° ESE 04:12:31 10° NE
Cosmos 2154 Rocket 4.3 04:05:28 10° N 04:11:40 64° ENE 04:17:48 10° SSE
Cosmos 1697 Rocket 3.2 04:15:13 56° ENE 04:15:13 56° ENE 04:19:46 10° NNE
ATLAS 2AS CENTAUR R/B 4.3 04:15:52 10° S 04:23:00 38° ESE 04:30:11 10° NE
Cosmos 1610 Rocket 4.4 04:18:15 10° N 04:24:34 83° E 04:30:55 10° S
ALOS 4.2 04:21:34 10° NE 04:25:38 29° E 04:29:40 10° SSE
USA 238 DEB 3.6 04:29:55 72° W 04:30:30 77° SW 04:37:54 10° SSE
USA 238 3.6 04:29:59 72° W 04:30:37 78° SW 04:38:00 10° SSE
COSMO-SKYMED 1 3.4 04:32:13 10° SSE 04:35:40 48° ESE 04:35:40 48° ESE
Meteor 1-21 Rocket 4.4 04:36:33 16° N 04:41:21 77° ENE 04:47:17 10° SSE
Lacrosse 5 rocket 3.0 04:44:11 28° NNE 04:44:11 28° NNE 04:47:15 10° NE
Cosmos 773 Rocket 4.1 04:43:58 67° N 04:43:58 67° N 04:48:35 10° NNE
NOSS 2-2 (D) 4.4 04:48:16 40° NE 04:48:16 40° NE 04:51:08 10° NE
STARLINK-58 4.5 04:54:10 43° SE 04:54:10 43° SE 04:58:00 10° ENE
COSMOS 2455 3.0 04:51:25 25° SSW 04:55:03 70° ESE 05:01:04 10° NE
Cosmos 2228 4.1 04:51:06 10° SSE 04:55:17 44° E 04:59:28 10° NNE
STARLINK-62 4.4 04:55:51 45° SE 04:55:52 45° SE 04:59:44 10° ENE
Cosmos 2322 Rocket 4.4 04:53:07 10° SSE 04:57:39 25° ESE 05:02:12 10° NE
STARLINK-48 4.1 05:00:06 51° NE 05:00:06 51° NE 05:03:09 10° ENE
Cosmos 1953 3.3 05:02:55 36° N 05:02:55 36° N 05:05:26 10° N
Cosmos 2263 Rocket 2.3 05:00:32 30° NNW 05:03:28 74° ENE 05:09:08 10° SE
STARLINK-60 4.1 05:06:16 45° ENE 05:06:16 45° ENE 05:08:50 10° E
STARLINK-42 4.0 05:05:33 51° SSE 05:05:34 51° SSE 05:09:13 10° ENE
Orbus 7S? 3.2 05:07:24 78° SSE 05:07:24 78° SSE 05:12:37 10° SE
Meteor 2-17 Rocket 4.3 05:01:58 10° NNW 05:08:00 67° W 05:14:00 10° S
PSLV R/B 3.7 05:04:11 10° NNE 05:07:52 78° ENE 05:07:52 78° ENE
CZ-2C R/B 3.8 05:04:57 10° N 05:07:13 24° NNW 05:07:13 24° NNW
STARLINK-64 3.8 05:11:17 52° S 05:11:36 54° SSE 05:15:20 10° ENE
Cosmos 923 Rocket 4.5 05:06:36 10° S 05:11:47 62° ESE 05:17:02 10° NNE
SL-8 Rocket 4.1 05:06:05 10° N 05:12:19 77° E 05:18:29 10° SSE
Cosmos 2360 4.1 05:10:41 41° SW 05:12:38 67° WNW 05:18:22 10° NNE
Cosmos 2181 Rocket 4.3 05:07:18 10° S 05:13:27 68° E 05:19:44 10° NNE
Cosmos 2344 3.5 05:09:57 32° WSW 05:13:44 70° NW 05:22:16 10° NE
Cosmos 1844 Rocket 4.4 05:11:08 10° NNW 05:15:57 28° NE 05:20:45 10° ESE
STARLINK-34 3.9 05:16:26 48° SSW 05:17:14 60° SSE 05:21:14 10° ENE
STARLINK-24 3.9 05:18:01 47° SSW 05:18:53 61° SSE 05:22:52 10° ENE
Cosmos 2341 Rocket 3.9 05:12:57 10° NNW 05:19:13 73° W 05:25:23 10° S
Meteor 2-10 4.3 05:13:56 10° S 05:19:25 75° E 05:24:45 10° NNE
STARLINK-81 3.9 05:19:20 43° SSW 05:20:22 59° SSE 05:24:21 10° ENE
Nadezhda 1 Rocket 4.1 05:18:05 25° SW 05:21:17 47° WNW 05:27:09 10° N
Cosmos 1953 Rocket 3.4 05:18:42 17° N 05:22:09 87° WSW 05:26:33 10° S
STARLINK-54 3.8 05:21:11 45° SSW 05:22:11 64° SSE 05:26:12 10° ENE
NOSS 3-2 (C) 4.0 05:18:50 29° NW 05:22:57 64° SW 05:31:13 10° SSE
STARLINK-77 3.9 05:22:30 41° SSW 05:23:39 62° SSE 05:27:39 10° ENE
USA 116 3.8 05:19:52 10° SSE 05:24:32 82° WSW 05:27:07 23° NNW
SKYMED 2 3.8 05:20:20 10° S 05:24:15 48° WSW 05:24:15 48° WSW
STARLINK-25 3.8 05:24:08 41° SSW 05:25:21 63° SSE 05:29:21 10° ENE
NOSS 2-2 (C) 3.6 05:25:57 46° NNW 05:25:57 46° NNW 05:29:58 10° NE
Cosmos 2278 3.9 05:24:06 37° WSW 05:25:52 50° NW 05:31:27 10° NNE
Cosmos 1758 Rocket 3.8 05:27:04 47° WSW 05:27:04 47° WSW 05:31:02 10° SSW
STARLINK-71 3.7 05:26:00 43° SW 05:27:11 69° SSE 05:31:12 10° ENE
Cosmos 1538 Rocket 4.2 05:26:37 36° WSW 05:28:19 49° WNW 05:33:28 10° NNE
STARLINK-79 3.8 05:27:15 39° SW 05:28:35 66° SSE 05:32:36 10° ENE
ATLAS 3B R/B 2.6 05:24:15 23° NW 05:28:41 88° NE 05:35:37 10° SE
STARLINK-78 3.7 05:28:54 38° SW 05:30:17 68° SSE 05:34:18 10° ENE
USA 32 3.9 05:25:42 10° N 05:30:57 72° W 05:36:10 10° S
Cosmos 1726 1.9 05:27:33 10° SSW 05:31:12 74° W 05:34:53 10° N
STARLINK-57 3.7 05:30:39 38° SW 05:32:03 72° SSE 05:36:05 10° ENE
STARLINK-49 3.7 05:32:03 36° SW 05:33:34 71° SSE 05:37:35 10° ENE
STARLINK-27 3.6 05:33:39 35° SW 05:35:14 73° SSE 05:39:16 10° ENE
Cosmos 1328 3.6 05:32:34 19° NNW 05:35:22 76° W 05:39:20 10° S
MOS 1-B 4.2 05:29:40 10° NNE 05:35:30 81° WNW 05:41:17 10° SSW
Cosmos 2369 4.3 05:34:44 32° WNW 05:35:46 35° NW 05:41:01 10° NNE
NOSS 2-2 (E) 4.0 05:35:46 36° NW 05:35:54 36° NW 05:40:04 10° NNE
STARLINK-74 3.6 05:35:15 34° SW 05:36:53 74° SSE 05:40:55 10° ENE
SL-16 R/B 2.9 05:31:52 10° S 05:37:23 57° ESE 05:42:57 10° NE
NOSS 3-4 (A) 3.7 05:32:32 10° SSW 05:38:29 69° SE 05:44:50 10° NE
STARLINK-39 3.6 05:36:50 33° SW 05:38:33 76° SSE 05:42:34 10° ENE
NOSS 3-4 (C) 3.7 05:32:38 10° SSW 05:38:35 68° SE 05:44:56 10° NE
STARLINK 3.6 05:38:28 32° SW 05:40:13 77° SSE 05:44:16 10° ENE
USA 215 3.5 05:34:21 10° SSE 05:40:43 53° SW 05:44:30 25° WNW
FALCON 9 DEB 3.2 05:40:35 47° NW 05:41:26 71° NNE 05:44:56 10° ESE
STARLINK-69 3.5 05:40:18 33° WSW 05:42:02 83° SSE 05:46:05 10° ENE
FENGYUN 3A 3.6 05:36:48 10° N 05:42:11 68° WNW 05:47:33 10° SSW
Okean O Rocket 1.7 05:37:53 10° NNE 05:42:23 80° ESE 05:46:49 10° SSW
Timation 1 Rocket 4.4 05:39:09 21° NW 05:43:06 57° WSW 05:48:58 10° S
STARLINK-21 3.5 05:41:41 31° WSW 05:43:33 81° SSE 05:47:35 10° ENE
H-2A R/B 4.2 05:40:47 10° NNE 05:44:31 41° E 05:48:12 10° S
Cosmos 2360 Rocket 4.2 05:40:12 10° SSE 05:45:04 30° ESE 05:49:57 10° NE
STARLINK-43 3.9 05:44:11 35° NW 05:45:10 44° N 05:48:46 10° ENE
STARLINK-45 3.5 05:43:35 31° WSW 05:45:26 87° SSE 05:49:28 10° ENE
STARLINK-26 3.3 05:44:58 45° WNW 05:45:43 57° NNW 05:49:10 10° ENE
BREEZE M DEB (TANK) 3.3 05:45:10 25° SW 05:46:35 53° SSE 05:52:08 10° ENE
CZ-4B R/B 3.3 05:41:16 10° NNE 05:46:53 80° ESE 05:52:20 10° SSW
STARLINK-70 3.5 05:45:01 30° WSW 05:46:57 87° SSE 05:51:00 10° ENE
BREEZE M DEB (TANK) 4.1 05:36:21 22° W 05:47:01 86° SSW 05:51:35 10° ESE
STARLINK-76 3.5 05:46:27 28° WSW 05:48:30 86° SSE 05:52:33 10° ENE
Cosmos 2218 Rocket 4.0 05:42:14 10° NNW 05:48:38 72° W 05:54:56 10° S
ADEOS Rocket 2.8 05:43:12 10° SSE 05:48:41 82° ENE 05:54:28 10° NNW
STARLINK-61 3.4 05:47:41 35° W 05:49:14 71° NNW 05:53:11 10° ENE
STARLINK 3.5 05:48:03 27° WSW 05:50:10 87° SSE 05:54:13 10° ENE
STARLINK-75 3.3 05:48:30 31° WSW 05:50:13 84° NNW 05:54:05 10° ENE
Cosmos 864 Rocket 4.4 05:44:19 10° NNW 05:50:32 76° W 05:56:46 10° S
CENTAUR R/B 3.3 05:44:51 19° NW 05:50:53 59° WSW 05:59:23 10° SSE
Cosmos 1825 Rocket 4.2 05:50:41 30° WNW 05:51:14 31° W 05:55:02 10° SSW
Cosmos 1980 Rocket 2.5 05:47:21 18° WSW 05:51:17 44° NW 05:56:43 10° NNE
Abrixas rocket 3.5 05:51:04 23° SW 05:51:20 23° SSW 05:53:49 10° SSE
Meteor 1-16 Rocket 4.3 05:45:41 10° SSW 05:51:33 64° WNW 05:57:21 10° N
Cosmos 1300 4.5 05:48:11 10° SSE 05:51:40 34° E 05:55:09 10° NNE
SJ-12 4.3 05:47:57 10° N 05:51:46 39° WNW 05:55:34 10° SW
STARLINK-32 3.5 05:49:37 26° WSW 05:51:49 89° SE 05:55:51 10° ENE
STARLINK-40 3.5 05:51:14 25° WSW 05:53:29 90° WNW 05:57:32 10° ENE
STARLINK-44 3.5 05:52:48 25° WSW 05:55:06 88° NNW 05:59:10 10° ENE
STARLINK-37 3.5 05:54:34 24° WSW 05:56:54 85° NNW 06:00:57 10° ENE
SL-4 R/B 3.8 05:57:43 13° SW 05:57:43 13° SW 05:59:19 10° SSW
STARLINK-41 3.3 05:55:33 25° WSW 05:57:40 84° NNW 06:01:31 10° ENE
PAYLOAD B 4.2 05:52:05 10° N 05:57:41 67° WNW 06:03:14 10° SSW
Cosmos 2058 Rocket 2.9 05:53:28 10° SSW 05:57:51 74° W 06:02:15 10° N
STARLINK-36 3.5 05:55:59 23° WSW 05:58:26 86° NNW 06:02:28 10° ENE
Cosmos 1697 Rocket 3.7 05:57:00 23° WNW 05:58:40 26° NW 06:03:21 10° NNE
Cosmos 158 Rocket 4.0 05:54:41 10° SSW 05:59:33 77° ESE 06:04:31 10° NNE
Cosmos 1908 3.2 05:55:42 10° SSW 05:59:34 63° W 06:03:29 10° N
STARLINK-68 3.5 05:57:51 23° WSW 06:00:16 80° NNW 06:04:19 10° ENE
NOAA 6 4.0 05:55:15 10° NNE 06:00:26 73° WNW 06:05:37 10° SSW
Cosmos 1680 Rocket 3.5 05:55:16 10° SSW 06:00:34 71° WNW 06:05:55 10° NNE
STARLINK-29 3.2 05:59:12 29° WNW 06:00:52 80° NNE 06:04:25 10° ESE
STARLINK-52 3.2 06:00:07 28° WNW 06:01:49 75° NNE 06:05:19 10° ESE
STARLINK-63 3.5 05:59:18 22° WSW 06:01:50 81° NNW 06:05:53 10° ENE
Cosmos 2058 4.5 05:58:51 10° N 06:02:47 37° ENE 06:06:43 10° SE
ALOS 2.7 05:58:49 10° N 06:03:08 38° WNW 06:07:27 10° SW
STARLINK-35 3.5 06:00:45 21° WSW 06:03:23 81° NNW 06:07:25 10° ENE
Cosmos 1371 Rocket 4.0 05:58:17 10° NNW 06:03:32 63° WSW 06:08:47 10° S
STARLINK 3.3 06:01:29 21° WSW 06:03:55 82° NNW 06:07:44 10° ENE
Genesis I 3.7 06:03:08 25° WNW 06:04:47 39° WSW 06:08:21 10° S
STARLINK-51 3.5 06:02:20 20° WSW 06:05:01 80° NNW 06:09:05 10° ENE
Cosmos 1900 4.3 06:01:44 14° NW 06:06:01 83° NE 06:10:55 10° SE
STARLINK-30 3.5 06:03:55 20° WSW 06:06:41 79° NNW 06:10:43 10° ENE
STARLINK-33 3.2 06:05:57 22° W 06:08:06 70° NNW 06:11:42 10° ENE
STARLINK-72 3.5 06:05:32 19° WSW 06:08:21 77° NNW 06:12:24 10° ENE
STARLINK-50 3.5 06:07:05 18° WSW 06:09:59 76° NNW 06:14:02 10° ENE
STARLINK-66 3.2 06:08:27 21° W 06:10:41 67° NNW 06:14:16 10° ENE
STARLINK-59 3.5 06:08:49 18° WSW 06:11:46 73° NNW 06:15:48 10° ENE
Lacrosse 5 2.8 06:06:57 10° SSW 06:11:51 50° SE 06:16:46 10° ENE
Meteor 1-11 4.3 06:06:58 10° NNW 06:12:24 54° W 06:17:52 10° S
Cosmos 1606 Rocket 4.3 06:08:38 10° SW 06:12:32 30° WNW 06:16:27 10° N
COSMO-SKYMED 1 4.0 06:10:06 10° SW 06:12:53 17° W 06:12:53 17° W
STARLINK-55 3.2 06:10:52 20° W 06:13:10 65° NNW 06:16:44 10° ENE
STARLINK-56 3.5 06:10:18 17° WSW 06:13:19 74° NNW 06:17:22 10° ENE
ATLAS 2AS CENTAUR R/B 3.1 06:05:40 10° SW 06:13:40 71° NW 06:21:38 10° NE
Cosmos 1726 Rocket 4.1 06:09:42 10° SW 06:13:47 35° WNW 06:17:52 10° N
Cosmos 1703 4.1 06:10:52 13° NW 06:13:49 29° W 06:17:15 10° SSW
SJ-7 4.5 06:10:06 10° N 06:14:11 58° WNW 06:18:17 10° SSW
CZ-2C R/B 4.3 06:09:42 10° SSE 06:14:13 60° ENE 06:18:40 10° N
Starlink (trailer) 3.5 06:11:52 16° WSW 06:14:58 73° NNW 06:19:00 10° ENE
STARLINK-28 3.3 06:12:50 20° W 06:15:08 61° NNW 06:18:41 10° ENE
Helios 1A Rocket 2.9 06:11:44 10° N 06:15:50 61° WNW 06:19:53 10° SSW
STARLINK-38 3.5 06:13:28 16° WSW 06:16:38 72° NNW 06:20:40 10° ENE
Cosmos 1420 Rocket 4.2 06:12:00 10° NNW 06:17:19 77° ENE 06:22:38 10° SSE
Cosmos 2112 Rocket 4.1 06:12:39 10° SW 06:17:56 61° WNW 06:23:16 10° NNE
STARLINK-65 3.5 06:15:04 15° WSW 06:18:17 71° NNW 06:22:19 10° ENE
STARLINK 1032 4.3 06:15:34 10° SW 06:19:01 45° SE 06:22:30 10° ENE
STARLINK-53 3.5 06:16:48 15° W 06:20:03 68° NNW 06:24:05 10° ENE
STARLINK-80 4.0 06:18:26 18° WNW 06:20:58 44° N 06:24:39 10° ENE
Cosmos 2366 rocket 4.3 06:15:51 10° NNW 06:21:50 45° W 06:27:48 10° SSW
STARLINK 1011 4.2 06:18:46 10° SW 06:22:16 47° SSE 06:25:47 10° ENE
Cosmos 1892 4.3 06:19:41 10° N 06:23:17 37° ENE 06:26:50 10° SE
Lacrosse 5 rocket 2.6 06:19:50 14° NW 06:23:20 34° NNE 06:27:23 10° E
STARLINK 1036 4.2 06:21:22 10° SW 06:24:52 49° SSE 06:28:23 10° ENE
STARLINK 1035 4.0 06:22:11 10° SW 06:25:29 50° SSE 06:28:49 10° ENE
Cosmos 1340 Rocket 3.9 06:21:49 10° S 06:25:35 47° E 06:29:22 10° NNE
STARLINK 1027 3.8 06:25:09 10° SW 06:28:30 56° SSE 06:31:52 10° ENE
Cosmos 1076 Rocket 3.7 06:25:38 10° N 06:30:02 81° ENE 06:34:25 10° SSE
Cosmos 2278 Rocket 3.9 06:25:18 10° NNW 06:30:03 27° NE 06:34:47 10° ESE
STARLINK 1047 4.0 06:27:32 10° SW 06:31:05 55° SSE 06:34:39 10° ENE
Cosmos 1437 2.5 06:28:14 10° NNW 06:31:17 76° W 06:34:18 10° S
STARLINK 1037 4.0 06:28:16 10° SW 06:31:49 55° SSE 06:35:23 10° ENE
Cosmos 1624 Rocket 4.4 06:27:11 10° NW 06:32:04 41° WSW 06:36:54 10° S
Cosmos 2228 4.2 06:29:38 10° WSW 06:33:03 22° WNW 06:36:29 10° NNW
STARLINK-58 3.6 06:29:26 11° W 06:33:15 62° NNW 06:37:16 10° ENE
YAOGAN 6 3.5 06:30:07 10° NNE 06:33:37 53° E 06:37:02 10° S
STARLINK 1028 3.1 06:31:29 10° SW 06:34:22 63° SSE 06:37:16 10° ENE
STARLINK 1021 3.1 06:31:42 10° SW 06:34:35 64° SSE 06:37:30 10° ENE
STARLINK 1059 3.9 06:31:14 10° SW 06:34:49 58° SSE 06:38:23 10° ENE
STARLINK 1019 3.1 06:31:57 10° SW 06:34:49 64° SSE 06:37:42 10° ENE
STARLINK-62 3.7 06:31:06 11° W 06:34:57 60° NNW 06:38:58 10° ENE
STARLINK 1012 3.1 06:32:10 10° SW 06:35:03 64° SSE 06:37:57 10° ENE
STARLINK 1010 3.1 06:32:22 10° SW 06:35:15 64° SSE 06:38:11 10° ENE
STARLINK 1026 3.1 06:32:31 10° SW 06:35:24 65° SSE 06:38:19 10° ENE
STARLINK 1013 3.1 06:32:49 10° SW 06:35:42 65° SSE 06:38:37 10° ENE
STARLINK 1009 3.1 06:33:03 10° SW 06:35:56 65° SSE 06:38:51 10° ENE
STARLINK 1015 3.1 06:33:17 10° SW 06:36:10 65° SSE 06:39:04 10° ENE
STARLINK 1016 3.0 06:33:29 10° SW 06:36:23 66° SSE 06:39:17 10° ENE
STARLINK 1008 3.0 06:33:43 10° SW 06:36:37 66° SSE 06:39:31 10° ENE
STARLINK 1025 3.0 06:34:09 10° SW 06:37:02 66° SSE 06:39:56 10° ENE
SAR-Lupe-2 4.4 06:33:44 10° SSE 06:37:13 53° ENE 06:40:44 10° N
STARLINK 1017 3.0 06:34:24 10° SW 06:37:17 67° SSE 06:40:12 10° ENE
STARLINK 1023 3.0 06:34:36 10° SW 06:37:30 67° SSE 06:40:26 10° ENE
STARLINK 1007 3.0 06:34:51 10° SW 06:37:45 67° SSE 06:40:40 10° ENE
STARLINK 1057 3.8 06:34:12 10° SW 06:37:47 61° SSE 06:41:23 10° ENE
STARLINK 1048 3.0 06:35:05 10° SW 06:37:59 68° SSE 06:40:54 10° ENE
STARLINK 1049 3.0 06:35:18 10° SW 06:38:12 68° SSE 06:41:07 10° ENE
STARLINK-48 4.0 06:34:52 12° WNW 06:38:14 45° N 06:42:00 10° ENE
Cosmos 1953 4.3 06:38:42 11° WNW 06:38:42 11° WNW 06:39:20 10° NW
STARLINK 1051 3.0 06:35:32 10° SW 06:38:26 68° SSE 06:41:20 10° ENE
STARLINK 1029 3.3 06:36:29 10° SW 06:39:36 65° SSE 06:42:43 10° ENE
EXPRESS MD2 2.0 06:37:26 12° W 06:39:52 73° N 06:42:00 10° E
STARLINK 1052 3.7 06:37:12 10° SW 06:40:48 64° SSE 06:44:25 10° ENE
CZ-4 R/B 3.2 06:37:10 10° NNE 06:41:08 38° E 06:45:04 10° SSE
Cosmos 2322 Rocket 2.2 06:35:39 10° SW 06:41:16 61° WNW 06:46:57 10° NNE
COSMOS 2455 3.6 06:36:11 10° W 06:41:30 32° NW 06:46:51 10° NNE
STARLINK-60 4.1 06:39:09 11° W 06:41:59 33° SW 06:45:02 10° SSE
STARLINK 1014 2.9 06:39:12 10° WSW 06:42:09 73° SSE 06:45:07 10° ENE
STARLINK-42 3.6 06:40:01 10° W 06:43:43 54° NNW 06:47:25 10° ENE
STARLINK 1068 3.6 06:40:12 10° SW 06:43:49 67° SSE 06:47:26 10° ENE
Cosmos 2263 Rocket 3.5 06:42:47 10° NW 06:46:47 20° W 06:50:48 10° SW
Cosmos 2056 Rocket 4.3 06:42:16 10° NW 06:47:07 34° WSW 06:51:56 10° SSW
STARLINK 1060 3.5 06:46:11 10° WSW 06:49:49 73° SSE 06:53:28 10° ENE
STARLINK-64 3.7 06:46:12 10° W 06:49:55 53° NNW 06:53:40 10° ENE
Cosmos 1825 4.2 06:46:49 10° N 06:50:10 29° ENE 06:53:29 10° SE
BREEZE-M DEB (TANK) 4.1 06:45:42 10° W 06:50:11 86° N 07:08:07 10° E
Cosmos 2333 Rocket 4.1 06:47:14 10° S 06:52:29 37° ESE 06:57:44 10° NE
STARLINK 1030 3.5 06:49:12 10° WSW 06:52:50 76° SSE 06:56:30 10° ENE
DMSP B5D2-2 4.5 06:50:21 10° SSE 06:55:34 71° ENE 07:00:51 10° N
STARLINK 1020 3.4 06:52:37 10° WSW 06:56:17 80° SSE 06:59:59 10° ENE
STARLINK-34 3.8 06:52:30 10° W 06:56:28 53° NNW 07:00:26 10° ENE
STARLINK-24 3.8 06:54:10 10° W 06:58:07 53° N 07:02:04 10° ENE
Cosmos 2151 3.5 06:54:26 10° N 06:58:42 64° ENE 07:02:58 10° SSE
STARLINK 1034 3.4 06:55:19 10° WSW 06:58:58 82° SSE 07:02:38 10° ENE
STARLINK-81 3.8 06:55:38 10° W 06:59:36 54° NNW 07:03:34 10° ENE
Cosmos 1867 4.1 06:54:32 10° NW 06:59:59 60° NE 07:05:21 10° SE
Cosmos 1844 Rocket 2.8 06:54:43 10° NNW 07:00:18 65° WSW 07:05:52 10° SSE
SMAP 3.4 06:56:56 10° N 07:01:21 43° WNW 07:05:44 10° SW
